Погода Ливны

Погода Ливны : погода сейчас, прогноз погоды и архив. Всё, что Вы хотите узнать о погоде Ливны!

Хотите узнать прогноз погоды Ливны? Тогда Вам сюда: Погода Ливны

Поиск расширенной информации на нашем сайте:

Другие новости

Новости СМИ2

Главная страница сайта

Новости сайта

03.07.2017

Напоминаем, что на нашем специализированном сайте Метеоцентр.Азия вы можете получить высокодетализированные автоматические прогнозы погоды по пунктам России, СНГ и мира в авиационном формате (включающие направление и скорость ветра, видимость, явления погоды, количество и форму облачности, нижнюю и верхнюю границу облачности).


Погода Ливны - сегодня

Время (UTC), дата Ветер
(°,м/с) 
Видим.   Явления Облачность Т
(°С)
Тd
(°С)
f(%) Тe
(°С)
Pmin
(гПа)
dP
(гПа)
Po
(мм)
O2
(г/м3)
Тmin Tmax R s Состояние
почвы
12 20.10.17 010 (С) 20000 м    5/3 600 м верхняя 
[Sc|Cs]
+8.3 -0.7 53 +8  1021.9  -0.6  750  293           
15 20.10.17 320 (СЗ) 20000 м    3/3 600 м верхняя 
[Sc|Cs]
+4.5 +0.3 74 +5  1022.2  750  297           
18 20.10.17 320 (СЗ) 20000 м    5/0 верхняя 
[Cc]
+1.1 -0.9 86 +2  1023.3  0.7  751  301    +9.4       
21 20.10.17 320 (СЗ) 20000 м    5/0 верхняя 
[Cc]
+0.2 -1.2 90 +1  1022.9  -0.4  750  302           
00 21.10.17 310 (СЗ) 20000 м    4/0 верхняя 
[Ci fib]
+0.1 -1 92 +1  1022.4  -0.5  750  302           
03 21.10.17 тихо ()   20000 м    6/0 верхняя 
[Cc]
+0.1 -1 92 1021.8  -0.6  749  302  -0.2         
06 21.10.17 320 (СЗ) 20000 м    8/3 600 м верхняя 
[Sc|Cc]
+1.2 +0.1 92 +2  1021.6  749  301  -0.7         
09 21.10.17 250 (З) 20000 м    8/3 600 м верхняя 
[Sc|Cc]
+8.3 -1.4 50 +9  1020.4  -0.7  749  293           
12 21.10.17 340 (С) 20000 м    8/3 600 м средняя, верхняя 
[Sc|Ac trans|Cc]
+7.4 +0 59 +7  1018.5  -1.8  748  293           
15 21.10.17 330 (СЗ) 20000 м    6/4 600 м средняя 
[Sc|Ac trans]
+5.6 -1.1 62 +5  1018.1  -0.6  747  295           
18 21.10.17 010 (С) 20000 м    9/9 600 м 
[Sc]
+3.4 +0.5 81 +3  1018.1  -0.1  747  297    +8.3       
21 21.10.17 тихо ()   20000 м    9/9 600 м 
[Sc]
+0.5 -1.2 88 +1  1018.2  -0.3  747  300           
00 22.10.17 тихо ()   20000 м    ясно 
-1 -2.6 89 -1  1017.8  -0.5  746  302           
03 22.10.17 010 (С) 20000 м    3/3 600 м 
[Sc]
-2.1 -3 94 -3  1017.7  -0.1  746  303  -2.1         
06 22.10.17 020 (С) 10 км    9/9 600 м верхняя 
[Sc|Cc]
+0.3 -1.4 88 1018.6  747  301  -2.1         
09 22.10.17 020 (С) 20000 м    9/8 600 м верхняя 
[Sc|Cc]
+2.7 -2.5 69 1019  0.6  748  299           
12 22.10.17 030 (СВ) 20000 м    9/8 600 м кучево-дожд., верхняя 
[Cb calv|Cc]
+2.4 -4.3 61 1019.1  0.1  748  299           
15 22.10.17 350 (С) 20000 м    8/8 600 м 
[Sc]
+0.7 -4.6 68 1020.4  748  301           
18 22.10.17 360 (С) 20000 м    ясно 
-2.2 -5.1 80 -3  1021.1  0.6  749  305    +3.1       
21 22.10.17 тихо ()   20000 м    3/0 верхняя 
[Ci fib]
-3.5 -5.3 87 -4  1021.9  0.6  749  306           
00 23.10.17 250 (З) 20000 м    ясно 
-5.1 -6.1 93 -5  1022.1  749  308           
03 23.10.17 тихо ()   20000 м    3/0 верхняя 
[Ci fib]
-6.1 -7.2 92 -6  1022.4  0.3  749  310  -6.5         
06 23.10.17 230 (ЮЗ) 10 км    8/0 верхняя 
[Cc]
-3 -4.7 88 -4  1022.7  0.5  750  306  -6.8         
09 23.10.17 290 (З) 20000 м    8/3 600 м верхняя 
[Sc|Cs]
+2.7 -4.2 60 +2  1022.1  -0.1  750  300           
12 23.10.17 320 (СЗ) 20000 м    9/5 600 м верхняя 
[Sc|Cc]
+3.5 -5.8 51 +3  1022.1  750  299           
Время (UTC), дата Ветер
(°,м/с) 
Видим.   Явления Облачность Т
(°С)
Тd
(°С)
f(%) Тe
(°С)
Pmin
(гПа)
dP
(гПа)
Po
(мм)
O2
(г/м3)
Тmin Tmax R s Состояние
почвы

Для получения пояснительной информации подведите курсор к названию столбца.

ПОГОДА Ливны - архив

Всё, что Вы хотите узнать о погоде Ливны - удобно и подробно!

Выберите нужную дату (начиная с 1 января 2015* года) и нажмите кнопку "Найти".
Будут отображены архивные сводки погоды по пункту Ливны, начиная с указанной даты.


Отображать данные в формате CSV (для использования в таблицах Excel)


Внимание! Наш архив погоды предназначен исключительно для личного некоммерческого использования в познавательных целях. Если Вам необходимы официальные справки о состоянии погоды (для производственных, юридических, коммерческих и т.п. целей), обращайтесь в органы Росгидромета.

*Примечание: данная дата относится к архиву по метеостанциям СССР (Россия, СНГ, Балтия).
Архив по метеостанциям Зарубежной Европы и Азии (кроме Китая) хранится 10 дней, по другим регионам земного шара (Китай, Африка, Америка, Австралия, Океания) - 1 день.

Ливны - район местоположения метеостанции


Название, широта, долгота, высота метеостанции:
Ливны 52.4°ш. 37.6°д. 179 м над ур. моря [Российская Федерация]

Дополнительная информация

В oтличие oт бoльшинства пoгoдных сайтoв мы публикуем пoдрoбную метеoинфoрмацию в детальнoм прoфессиoнальнoм фoрмате.

Характеристики температуры и влажнoсти вoздуха измеряются на высoте 2 м в тени вдали oт зданий и деревьев.
Скoрoсть ветра измеряется на высoте 10 м (на урoвне рoста челoвека скoрoсть ветра ниже в 1.5-2 раза). Если метеoстанция нахoдится в гoрoде или в лесу, тo скoрoсть ветра занижена на 2-4 м/с пo сравнению с oткрытым местoм. Скoрoсть ветра над акватoриями крупных рек и oзёр, а также на вершинах хoлмoв на 2-5 м/с выше, чем в oбычных услoвиях.
Атмoсфернoе давление в разных тoчках местнoсти мoжет значительнo oтличаться oт давления на метеoстанции, в зависимoсти oт услoвий рельефа (при пoдъёме на 10 м давление пoнижается примернo на 1 мм рт.ст.).